DW6561 Weather Reports


Display with metric or nautical units.
time (UTC)temp
F
wind
direction
speed
MPH
gust
MPH
rain 1hr
in
rain 24hr
in
rain mn
in
humidity
%
barometer
mb
20260506214503 80 249 4.0 14.0 0.00 0.00 0.00 36 1012.4
20260506213007 80 184 5.0 17.0 0.00 0.00 0.00 36 1012.7
20260506211504 80 217 7.0 16.0 0.00 0.00 0.00 36 1012.9
20260506204507 80 171 5.0 15.0 0.00 0.00 0.00 38 1013.2
20260506203013 80 170 7.0 13.0 0.00 0.00 0.00 37 1013.2
20260506200007 79 216 4.0 16.0 0.00 0.00 0.00 40 1013.3
20260506194505 79 211 8.0 19.0 0.00 0.00 0.00 38 1013.4
20260506193006 78 217 3.0 14.0 0.00 0.00 0.00 41 1013.4
20260506191507 77 109 8.0 16.0 0.00 0.00 0.00 41 1013.4
20260506190009 75 192 8.0 19.0 0.00 0.00 0.00 45 1013.5
20260506183013 74 159 7.0 20.0 0.00 0.00 0.00 47 1013.6
20260506181520 73 109 8.0 16.0 0.00 0.00 0.00 48 1013.8
20260506180009 72 240 9.0 16.0 0.00 0.00 0.00 51 1013.9
20260506174515 71 175 7.0 17.0 0.00 0.00 0.00 53 1013.9
20260506173013 70 182 9.0 19.0 0.00 0.00 0.00 55 1014.0
20260506171520 69 76 6.0 15.0 0.00 0.00 0.00 56 1014.2
20260506164517 67 126 7.0 19.0 0.00 0.00 0.00 59 1014.3
20260506163022 65 117 8.0 17.0 0.00 0.00 0.00 63 1014.4
20260506154514 61 60 10.0 20.0 0.00 0.00 0.00 75 1014.0
20260506153010 62 123 8.0 17.0 0.00 0.00 0.00 69 1014.0
20260506151506 62 180 7.0 19.0 0.00 0.00 0.00 68 1014.0
20260506150002 61 161 7.0 16.0 0.00 0.00 0.00 70 1013.9
20260506144505 60 163 11.0 19.0 0.00 0.00 0.00 71 1013.9
20260506143006 59 167 6.0 15.0 0.00 0.00 0.00 71 1013.7
20260506141521 59 178 9.0 18.0 0.00 0.00 0.00 71 1013.6
20260506140007 59 205 6.0 18.0 0.00 0.00 0.00 71 1013.7
20260506134507 59 159 7.0 15.0 0.00 0.00 0.00 71 1013.5
20260506133009 59 207 7.0 12.0 0.00 0.00 0.00 70 1013.4
20260506130005 59 153 6.0 12.0 0.00 0.00 0.00 69 1012.9
20260506124522 59 159 4.0 13.0 0.00 0.00 0.00 69 1012.7
20260506123009 59 148 4.0 14.0 0.00 0.00 0.00 68 1012.7
20260506121516 59 236 5.0 10.0 0.00 0.00 0.00 69 1012.5
20260506120011 60 156 6.0 12.0 0.00 0.00 0.00 67 1012.5
20260506113008 60 202 5.0 10.0 0.00 0.00 0.00 68 1012.2
20260506111510 60 197 5.0 11.0 0.00 0.00 0.00 70 1012.2
20260506110016 60 225 5.0 10.0 0.00 0.00 0.00 69 1012.1
20260506104522 60 141 5.0 10.0 0.00 0.00 0.00 68 1012.0
20260506103022 61 167 4.0 10.0 0.00 0.00 0.00 68 1011.9
20260506101531 62 161 4.0 11.0 0.00 0.00 0.00 66 1012.0
20260506094523 63 213 2.0 11.0 0.00 0.00 0.00 64 1011.9
20260506093021 63 252 1.0 12.0 0.00 0.00 0.00 63 1011.9
20260506091524 63 184 5.0 14.0 0.00 0.00 0.00 62 1011.7
20260506090006 65 175 6.0 13.0 0.00 0.00 0.00 59 1011.5
20260506084507 65 164 7.0 14.0 0.00 0.00 0.00 56 1011.3
20260506083003 67 153 6.0 12.0 0.00 0.00 0.00 54 1011.2
20260506081509 68 212 4.0 14.0 0.00 0.00 0.00 50 1011.1
20260506073003 70 142 4.0 12.0 0.00 0.00 0.00 46 1011.1
20260506071503 69 161 4.0 12.0 0.00 0.00 0.00 47 1011.1
20260506061503 70 139 2.0 8.0 0.00 0.00 0.00 48 1011.0
20260506044510 70 101 1.0 4.0 0.00 0.00 0.00 47 1011.0
20260506043008 70 131 1.0 8.0 0.00 0.00 0.00 45 1010.9
20260506041508 71 161 2.0 7.0 0.00 0.00 0.00 45 1010.8
20260506040005 72 132 3.0 8.0 0.00 0.00 0.00 44 1010.8
20260506034510 73 138 2.0 6.0 0.00 0.00 0.00 42 1010.7
20260506033010 74 134 1.0 6.0 0.00 0.00 0.00 42 1010.6
20260506031522 76 136 2.0 6.0 0.00 0.00 0.00 41 1010.3
20260506024509 78 116 1.0 3.0 0.00 0.00 0.00 37 1010.1
20260506023007 79 167 1.0 4.0 0.00 0.00 0.00 35 1010.1
20260506021513 80 107 0.0 4.0 0.00 0.00 0.00 34 1010.1
20260506020023 81 112 1.0 4.0 0.00 0.00 0.00 34 1010.1
20260506014533 82 299 0.0 2.0 0.00 0.00 0.00 31 1010.0
20260506013017 82 303 0.0 2.0 0.00 0.00 0.00 28 1010.0
20260506011514 82 352 0.0 3.0 0.00 0.00 0.00 29 1010.1
20260506004534 84 219 0.0 2.0 0.00 0.00 0.00 30 1010.2
20260506003028 84 296 0.0 2.0 0.00 0.00 0.00 28 1010.3
20260506001513 85 294 0.0 2.0 0.00 0.00 0.00 27 1010.4
20260506000020 85 327 0.0 2.0 0.00 0.00 0.00 27 1010.5
20260505234520 86 109 0.0 3.0 0.00 0.00 0.00 28 1010.6
20260505233009 86 271 0.0 3.0 0.00 0.00 0.00 29 1010.8
20260505231508 86 304 0.0 3.0 0.00 0.00 0.00 29 1011.0
20260505224506 85 334 0.0 3.0 0.00 0.00 0.00 30 1011.2
20260505223007 85 329 0.0 2.0 0.00 0.00 0.00 31 1011.3
20260505221516 84 78 0.0 4.0 0.00 0.00 0.00 31 1011.4
20260505220027 84 186 0.0 2.0 0.00 0.00 0.00 33 1011.6